Regional Weather Roundup
Issued by NWS Goodland, KS

Home | Current Version | Previous Version | Text Only | Print | Product List | Glossary On
Versions: 1 2 3 4 5 6 7 8 9 10 11 12 13 14 15 16 17 18 19 20 21 22 23 24 25 26 27 28 29 30 31 32 33 34 35 36 37 38 39 40 41 42 43 44 45 46 47 48 49 50
000
ASUS43 KGLD 041459
RWRGLD

GOODLAND FORECAST AREA HOURLY WEATHER ROUNDUP
NATIONAL WEATHER SERVICE GOODLAND KS
900 AM MDT FRI SEP 04 2015

...OFFICIAL OBSERVATIONS...

CITY           SKY/WX    TMP DP  RH WIND       PRES   REMARKS
GOODLAND KS    SUNNY     77  53  43 NW12      29.93R
HILL CITY KS   SUNNY     82  60  47 S15G21    29.86S
IMPERIAL NEB   SUNNY     73  58  59 NW6       29.89R
MCCOOK NEB     MOSUNNY   76  62  62 W8        29.84R
AKRON CO       MOSUNNY   68  52  56 W9        29.99R
BURLINGTON CO  SUNNY     76  51  41 NW7       29.97S
LIMON CO       PTSUNNY   70  52  52 S6        30.06R
$$

...UNOFFICIAL OBSERVATIONS...

CITY           SKY/WX    TMP DP  RH WIND       PRES   REMARKS
COLBY KS       SUNNY     77  61  57 W9        29.91S
GOVE KS          N/A     76  32  20 MISG        N/A
LENORA KS        N/A     76  32  20 MISG        N/A
NORTON KS      SUNNY     75  54  46 S13G18    29.84F
YUMA CO          N/A     69  55  60 W5          N/A
$$


USA.gov is the U.S. government's official web portal to all federal, state and local government web resources and services.